Location: De Schans
(53.3025°N, 6.2684°E)
Time: 22:59:11
(UTC+00:00)

Daily predictions for brighter satellites

Satellite Brightness Start Highest point End
(mag) Time Altitude Azimuth Time Altitude Azimuth Time Altitude Azimuth
Cosmos 2279 Rocket 4.1 15:52:06 10° N 15:58:18 60° ENE 16:04:26 10° SSE
SL-08 RB Rocket 3.6 15:55:51 10° SSE 16:00:18 71° ENE 16:04:50 10° N
Cosmos 1269 Rocket 4.1 15:55:29 10° NNW 16:00:49 88° ENE 16:06:07 10° SSE
Cosmos 2228 4.0 15:59:34 10° SSW 16:03:46 47° WNW 16:07:58 10° N
Cosmos 1606 Rocket 3.6 15:59:20 10° S 16:03:47 85° E 16:08:15 10° NNE
Cosmos 1726 Rocket 3.6 16:00:16 10° S 16:04:40 68° E 16:09:05 10° NNE
CZ-2D R/B 3.2 16:02:09 10° SSE 16:05:43 55° ENE 16:09:20 10° N
SJ-12 4.4 16:03:55 10° S 16:07:53 64° WSW 16:11:52 10° NNW
ARIANE 5 R/B 4.3 16:03:44 10° SSW 16:08:20 35° W 16:13:02 10° NNW
Cosmos 1125 Rocket 4.2 16:05:01 10° SW 16:10:08 53° WNW 16:15:20 10° NNE
Cosmos 1812 4.3 16:08:47 10° ESE 16:10:53 15° E 16:13:01 10° NE
Meteor 1-27 4.2 16:05:35 10° S 16:11:13 85° E 16:16:50 10° NNE
Cosmos 1825 Rocket 4.5 16:07:22 10° NNW 16:11:34 53° W 16:15:46 10° S
USA 276 4.1 16:14:14 10° S 16:15:10 12° SSE 16:16:07 10° SE
Cosmos 1437 Rocket 2.7 16:11:59 10° NNW 16:15:44 86° WSW 16:19:29 10° S
CZ-2C R/B 2.6 16:13:46 10° SSE 16:17:16 57° ENE 16:20:51 10° N
Cosmos 2263 Rocket 2.7 16:12:37 10° S 16:17:48 42° ESE 16:23:03 10° NE
Cosmos 1844 Rocket 4.5 16:17:48 10° ESE 16:18:54 11° E 16:20:01 10° E
CORIOLIS 4.2 16:17:01 10° SE 16:22:15 58° ENE 16:27:32 10° N
USA 307 3.7 16:19:30 10° WNW 16:23:12 46° SSW 16:26:53 10° SE
ERS-2 2.0 16:20:47 10° S 16:23:41 64° WSW 16:26:37 10° NNW
Cosmos 2082 Rocket 4.1 16:21:47 10° NNW 16:24:23 13° N 16:26:59 10° NE
Cosmos 44 4.5 16:20:30 10° NW 16:25:45 52° SW 16:30:48 10° SSE
Meteor 1-20 Rocket 4.5 16:20:26 10° N 16:25:46 44° ENE 16:31:09 10° SE
Cosmos 2227 Rocket 2.4 16:20:08 10° SW 16:25:48 75° NW 16:31:30 10° NNE
Cosmos 1140 Rocket 3.5 16:21:15 10° NNW 16:26:23 57° ENE 16:31:27 10° SE
SAR-Lupe-2 3.6 16:27:23 10° SSE 16:30:58 83° WSW 16:34:34 10° NNW
YAOGAN 1 4.2 16:29:58 13° ENE 16:30:59 14° NE 16:33:18 10° NNE
Cosmos 1666 2.4 16:29:26 10° N 16:32:59 68° ENE 16:36:30 10° SSE
ARGOS 4.3 16:29:42 10° S 16:34:57 49° W 16:40:14 10° NNW
Cosmos 1603 3.7 16:30:43 10° NNW 16:36:23 60° NE 16:41:59 10° SE
DMSP B5D2-2 4.2 16:32:29 10° NNE 16:37:38 55° E 16:42:44 10° S
Cosmos 1076 Rocket 3.8 16:35:50 10° NNW 16:40:12 74° W 16:44:32 10° S
CZ-2C R/B 4.3 16:36:42 10° N 16:41:19 31° WNW 16:45:49 10° WSW
Meteor 1-31 Rocket 2.6 16:40:31 10° SSE 16:44:11 67° ENE 16:47:54 10° N
Cosmos 1544 4.3 16:41:58 10° NNW 16:45:04 40° W 16:48:07 10° SSW
CZ-4B R/B 4.4 16:44:59 18° ENE 16:45:36 18° ENE 16:48:28 10° NNE
SL-16 R/B 4.1 16:44:01 10° NW 16:49:05 34° WSW 16:54:07 10° S
ATLAS CENTAUR R/B 3.1 16:46:10 10° WNW 16:49:58 57° SSW 16:57:09 10° SE
Cosmos 1238 Rocket 4.4 16:47:58 10° SW 16:50:56 27° WNW 16:53:40 10° NNW
Cosmos 1602 3.6 16:48:06 10° N 16:51:51 90° NNE 16:55:35 10° S
RESURS DK-1 3.2 16:50:53 10° NNW 16:54:31 29° NE 16:56:12 22° E
USA 305 4.1 16:51:20 10° W 16:54:52 37° SSW 16:58:26 10° SE
Cosmos 1607 4.1 16:51:33 10° SW 16:57:56 84° NW 17:03:18 16° NE
CZ-4B R/B 3.4 16:55:12 10° SSE 17:00:09 62° ENE 17:05:01 10° N
Cosmos 1943 3.4 16:54:43 10° NW 17:00:22 76° WSW 17:05:59 10° SSE
Helios 1A 3.6 16:58:42 20° NE 17:01:02 34° E 17:04:49 10° SSE
Cosmos 1782 3.7 16:59:17 10° SSE 17:02:36 27° E 17:03:02 26° ENE
Cosmos 1271 Rocket 4.2 16:59:32 10° N 17:01:24 20° NE 17:01:24 20° NE
ATLAS 2AS CENTAUR R/B 2.7 16:55:46 10° NW 17:02:47 63° NE 17:09:08 11° ESE
Cosmos 1812 Rocket 3.8 16:58:49 10° SSE 17:02:56 44° E 17:06:22 14° NNE
SMAP 3.5 17:02:17 10° S 17:06:54 65° WSW 17:11:34 10° NNW
Helios 1B rocket 4.3 17:03:58 10° SSW 17:07:31 32° W 17:11:06 10° NNW
NOAA 6 4.0 17:02:59 10° SE 17:08:00 57° ENE 17:13:03 10° N
CZ-4B R/B 4.1 17:06:41 10° S 17:10:15 63° WSW 17:13:54 10° NNW
SL-16 R/B 4.4 17:06:36 10° N 17:11:37 26° NW 17:16:38 10° WSW
Cosmos 407 Rocket 3.4 17:06:34 10° NNW 17:11:47 90° ENE 17:16:54 10° SSE
Cosmos 2297 Rocket 3.7 17:09:19 10° W 17:14:14 29° NW 17:19:10 10° NNE
Radarsat Rocket 3.9 17:08:47 10° SSE 17:14:34 69° ENE 17:20:46 10° NNW
Cosmos 405 Rocket 4.4 17:13:36 10° SW 17:17:04 32° WNW 17:20:35 10° N
ISS -0.5 17:17:06 10° WSW 17:18:20 12° SW 17:19:34 10° SSW
Cosmos 2251 Rocket 3.7 17:14:10 10° NNW 17:19:31 77° WSW 17:24:52 10° SSE
Cosmos 2219 3.9 17:15:04 10° SW 17:20:32 51° NW 17:25:23 13° NNE
ADEOS Rocket 4.1 17:22:48 21° NE 17:22:48 21° NE 17:26:20 10° N
Cosmos 220 Rocket 3.9 17:19:05 10° NNW 17:23:25 65° ENE 17:27:39 10° SE
Cosmos 1954 Rocket 4.0 17:21:08 10° NNW 17:26:22 58° ENE 17:31:28 10° SE
Cosmos 2056 Rocket 4.4 17:24:07 10° SSE 17:28:44 30° E 17:28:45 30° E
Cosmos 1844 4.4 17:24:47 10° SSE 17:29:47 31° ESE 17:30:24 31° E
COSMO-SKYMED 1 2.8 17:29:30 38° ENE 17:30:31 46° E 17:34:42 10° S
Lacrosse 5 2.9 17:26:52 10° S 17:31:06 28° SE 17:31:42 27° ESE
CZ-4 R/B 4.2 17:27:34 10° SSE 17:31:38 77° ENE 17:35:45 10° NNW
Lacrosse 4 Rocket 3.0 17:28:05 10° NW 17:32:07 37° WSW 17:36:02 10° S
Cosmos-2242 3.0 17:28:09 10° SSW 17:32:29 81° W 17:36:22 13° N
Cosmos 1833 Rocket 3.5 17:28:24 10° NNW 17:33:21 30° NE 17:33:48 29° NE
Cosmos 2082 4.2 17:30:01 10° SW 17:35:33 58° NW 17:39:46 18° NNE
Cosmos 1553 Rocket 4.1 17:31:36 10° N 17:37:48 52° ENE 17:43:52 10° SSE
USA 234 3.6 17:37:35 31° E 17:40:23 49° SE 17:46:41 10° SW
APEX 3.4 17:37:58 10° SSW 17:39:58 38° SSW 17:39:58 38° SSW
Meteor 2-2 Rocket 4.2 17:36:29 10° S 17:42:15 80° ESE 17:48:12 10° NNE
Cosmos 2221 3.8 17:39:05 10° SSE 17:41:02 24° SE 17:41:02 24° SE
Cosmos 2344 3.5 17:36:16 10° SSW 17:43:34 60° SE 17:47:04 32° ENE
Cosmos 1190 Rocket 4.0 17:38:30 10° NNW 17:43:52 85° WSW 17:49:09 10° SSE
Cosmos 1812 3.2 17:41:58 10° SSW 17:45:35 57° WNW 17:47:41 23° N
Cosmos 1818 3.6 17:42:05 10° SSW 17:47:24 59° SE 17:48:46 45° ENE
USA 276 4.0 17:47:01 10° SW 17:48:03 20° SW 17:48:03 20° SW
Cosmos 2026 Rocket 3.9 17:43:08 10° S 17:49:22 74° E 17:55:44 10° NNE
Cosmos 1371 Rocket 4.3 17:47:54 10° S 17:52:32 44° ESE 17:52:32 44° ESE
IGS 5A 4.2 17:55:43 39° N 17:55:43 39° N 17:58:27 10° N
NOAA 15 4.5 17:50:33 10° SSE 17:55:48 68° ENE 18:01:05 10° NNW
Cosmos 2195 Rocket 4.5 17:50:11 10° S 17:56:30 88° W 18:02:49 10° N
Cosmos 44 Rocket 4.0 17:52:50 10° NW 17:57:40 39° NNE 17:57:40 39° NNE
CZ-4B R/B 3.9 18:01:42 38° NNE 18:01:42 38° NNE 18:05:50 10° N
Cosmos 1844 Rocket 2.7 17:56:08 10° S 18:01:34 57° ESE 18:02:02 55° E
Cosmos 2263 Rocket 3.0 17:56:23 10° WSW 18:01:44 46° NW 18:05:03 22° NNE
Meteor 1-26 Rocket 4.1 17:57:07 10° S 18:02:36 63° E 18:04:18 43° NE
Cosmos 1766 Rocket 3.4 17:58:16 10° NNW 18:02:41 89° WSW 18:07:00 10° S
YAOGAN 1 2.7 18:07:03 62° N 18:07:03 62° N 18:10:40 10° NNW
Cosmos 1092 Rocket 3.9 18:00:45 10° S 18:06:53 85° W 18:13:06 10° N
Cosmos 1933 3.4 18:04:06 10° SSW 18:07:55 74° WSW 18:07:55 74° WSW
Cosmos 1420 Rocket 4.0 18:03:35 10° S 18:08:27 59° SE 18:08:27 59° SE
Cosmos 2227 4.3 18:04:28 10° SW 18:10:14 76° WNW 18:12:32 38° NNE
Cosmos 2082 Rocket 3.7 18:06:10 10° NNW 18:09:22 22° NNE 18:09:22 22° NNE
Cosmos 2227 Rocket 4.0 18:06:20 10° W 18:10:49 23° NNW 18:14:00 15° N
ADEOS 3.8 18:06:27 10° S 18:11:39 68° WSW 18:16:53 10° NNW
Meteor 1-5 Rocket 4.4 18:06:03 10° NNW 18:11:43 74° W 18:17:32 10° S
Cosmos 1624 Rocket 4.2 18:11:24 10° S 18:15:39 53° SSE 18:15:39 53° SSE
SKYMED 2 3.8 18:18:08 59° NNW 18:18:40 67° WNW 18:22:59 10° SSW
CZ-4B R/B 3.5 18:20:41 54° NW 18:20:41 54° NW 18:24:01 10° NNW
Cosmos 1417 Rocket 4.4 18:16:01 10° N 18:22:19 71° ENE 18:24:06 48° SE
SL-08 R/B 3.4 18:25:44 65° SSW 18:25:44 65° SSW 18:29:42 10° SSW
Cosmos 192 4.4 18:24:06 10° SSW 18:28:35 73° SW 18:28:35 73° SW
RESURS DK-1 3.4 18:28:34 10° NW 18:31:56 44° W 18:31:56 44° W
Cosmos 1782 4.4 18:34:49 10° SW 18:38:16 33° WNW 18:38:16 33° WNW
ATLAS 2AS CENTAUR R/B 3.5 18:47:02 10° NW 18:53:34 46° WSW 18:56:38 28° S
Cosmos 2297 Rocket 4.4 18:57:17 10° NW 19:00:15 14° NNW 19:00:58 14° N
ADEOS Rocket 4.1 19:09:44 31° NNW 19:09:44 31° NNW 19:12:44 10° NNW
Lacrosse 5 3.5 19:08:33 10° WSW 19:10:56 28° WSW 19:10:56 28° WSW
Timation 2 Rocket 4.5 19:10:46 10° SW 19:15:41 53° W 19:15:41 53° W
Cosmos 1833 Rocket 3.9 19:12:12 10° NW 19:15:30 37° NW 19:15:30 37° NW
USA 234 3.5 19:24:56 63° W 19:24:56 63° W 19:30:18 10° WSW
Cosmos 1844 Rocket 4.4 19:40:36 10° WSW 19:43:44 28° W 19:43:44 28° W
Cosmos 2263 Rocket 4.4 19:43:28 10° WNW 19:46:45 17° NNW 19:46:45 17° NNW
Cosmos 2082 Rocket 4.5 19:50:01 10° NNW 19:51:12 17° NNW 19:51:12 17° NNW
Cosmos 2344 4.2 19:51:03 10° W 19:57:06 49° NW 19:57:06 49° NW
